DW2786 Weather Reports


Display with metric or nautical units.
time (UTC)temp
F
wind
direction
speed
MPH
gust
MPH
rain 1hr
in
rain 24hr
in
rain mn
in
humidity
%
barometer
mb
20260502170326 55 235 1.0 7.0 0.00 0.00 0.00 44 1017.7
20260502164322 56 150 2.0 6.0 0.00 0.00 0.00 43 1017.8
20260502163833 56 24 2.0 6.0 0.00 0.00 0.00 43 1017.9
20260502163320 57 285 2.0 13.0 0.00 0.00 0.00 44 1017.9
20260502163039 56 155 1.0 13.0 0.00 0.00 0.00 42 1015.7
20260502162826 57 302 1.0 13.0 0.00 0.00 0.00 42 1017.8
20260502162334 57 128 3.0 9.0 0.00 0.00 0.00 40 1017.9
20260502161818 58 32 3.0 10.0 0.00 0.00 0.00 39 1018.0
20260502161558 57 99 2.0 10.0 0.00 0.00 0.00 38 1018.3
20260502161538 57 0 2.0 11.0 0.00 0.00 0.00 38 1015.8
20260502161328 58 254 2.0 9.0 0.00 0.00 0.00 41 1017.9
20260502160816 58 360 4.0 9.0 0.00 0.00 0.00 39 1018.0
20260502160327 58 55 4.0 8.0 0.00 0.00 0.00 42 1018.1
20260502151815 58 136 1.0 3.0 0.00 0.00 0.00 44 1018.2
20260502151541 57 13 1.0 6.0 0.00 0.00 0.00 42 1016.0
20260502151517 57 9 1.0 3.0 0.00 0.00 0.00 43 1018.5
20260502151326 58 36 1.0 3.0 0.00 0.00 0.00 47 1018.3
20260502150810 58 14 2.0 6.0 0.00 0.00 0.00 46 1018.3
20260502150317 58 113 2.0 5.0 0.00 0.00 0.00 48 1018.4
20260502130315 46 112 0.0 3.0 0.00 0.00 0.00 91 1018.6
20260502123318 42 132 1.0 3.0 0.00 0.00 0.00 90 1018.5
20260502123057 41 130 1.0 3.0 0.00 0.00 0.00 90 1018.8
20260502123039 41 130 0.0 3.0 0.00 0.00 0.00 90 1016.2
20260502122827 41 82 1.0 2.0 0.00 0.00 0.00 90 1018.5
20260502122317 40 98 0.0 2.0 0.00 0.00 0.00 90 1018.7
20260502121826 40 108 1.0 2.0 0.00 0.00 0.00 90 1018.7
20260502121534 39 77 0.0 2.0 0.00 0.00 0.00 89 1019.0
20260502121310 39 109 1.0 2.0 0.00 0.00 0.00 89 1018.7
20260502120821 38 115 1.0 2.0 0.00 0.00 0.00 89 1018.5
20260502120310 37 129 0.0 1.0 0.00 0.00 0.00 89 1018.6
20260502115841 37 154 0.0 2.0 0.00 0.00 0.00 88 1018.6
20260502115331 36 174 0.0 2.0 0.00 0.00 0.00 88 1018.5
20260502114813 36 174 0.0 2.0 0.00 0.00 0.00 88 1018.5
20260502114558 35 0 0.0 2.0 0.00 0.00 0.00 87 1016.3
20260502114556 35 174 0.0 2.0 0.00 0.00 0.00 88 1018.9
20260502113811 35 174 1.0 2.0 0.00 0.00 0.00 87 1018.4
20260502113322 35 185 1.0 2.0 0.00 0.00 0.00 87 1018.4
20260502113036 34 188 0.0 2.0 0.00 0.00 0.00 87 1016.2
20260502113034 34 188 1.0 2.0 0.00 0.00 0.00 87 1018.8
20260502112833 35 193 1.0 2.0 0.00 0.00 0.00 87 1018.4
20260502112318 34 151 1.0 2.0 0.00 0.00 0.00 87 1018.4
20260502111825 34 150 0.0 0.0 0.00 0.00 0.00 87 1018.4
20260502111534 34 0 0.0 0.0 0.00 0.00 0.00 86 1016.1
20260502111511 34 150 0.0 0.0 0.00 0.00 0.00 87 1018.6
20260502111314 34 150 0.0 0.0 0.00 0.00 0.00 87 1018.2
20260502110824 34 150 0.0 0.0 0.00 0.00 0.00 87 1018.4
20260502110327 34 28 0.0 0.0 0.00 0.00 0.00 87 1018.4
20260502110053 33 28 0.0 0.0 0.00 0.00 0.00 86 1018.7
20260502110037 33 0 0.0 0.0 0.00 0.00 0.00 86 1016.1
20260502105816 34 113 0.0 0.0 0.00 0.00 0.00 86 1018.3
20260502105325 34 62 0.0 0.0 0.00 0.00 0.00 86 1018.1
20260502104835 34 63 0.0 0.0 0.00 0.00 0.00 86 1018.3
20260502104538 33 0 0.0 0.0 0.00 0.00 0.00 86 1016.2
20260502104517 33 222 0.0 0.0 0.00 0.00 0.00 86 1018.7
20260502104343 34 222 0.0 0.0 0.00 0.00 0.00 86 1018.4
20260502103811 34 222 0.0 0.0 0.00 0.00 0.00 86 1018.5
20260502103321 34 252 0.0 0.0 0.00 0.00 0.00 86 1018.6
20260502103038 33 252 0.0 0.0 0.00 0.00 0.00 86 1018.9
20260502102823 34 252 0.0 0.0 0.00 0.00 0.00 86 1018.5
20260502102314 34 252 0.0 0.0 0.00 0.00 0.00 86 1018.6
20260502101823 34 252 0.0 0.0 0.00 0.00 0.00 86 1018.5
20260502101548 34 0 0.0 0.0 0.00 0.00 0.00 86 1016.4
20260502101525 34 252 0.0 0.0 0.00 0.00 0.00 86 1018.9
20260502101330 34 252 0.0 0.0 0.00 0.00 0.00 86 1018.6
20260502100839 34 252 0.0 0.0 0.00 0.00 0.00 86 1018.6
20260502100321 34 252 0.0 0.0 0.00 0.00 0.00 86 1018.5
20260502091531 34 252 0.0 0.0 0.00 0.00 0.00 86 1018.9
20260502091333 35 252 0.0 0.0 0.00 0.00 0.00 86 1018.6
20260502090823 35 252 0.0 0.0 0.00 0.00 0.00 86 1018.6
20260502090333 35 252 0.0 0.0 0.00 0.00 0.00 86 1018.6
20260502071526 36 252 0.0 0.0 0.00 0.00 0.00 85 1018.7
20260502071334 37 252 0.0 0.0 0.00 0.00 0.00 85 1018.3
20260502070841 37 252 0.0 0.0 0.00 0.00 0.00 85 1018.3
20260502070349 37 252 0.0 0.0 0.00 0.00 0.00 84 1018.4
20260502070042 37 252 0.0 0.0 0.00 0.00 0.00 85 1018.6
20260502070035 37 0 0.0 0.0 0.00 0.00 0.00 84 1015.9
20260502065837 37 252 0.0 0.0 0.00 0.00 0.00 85 1018.3
20260502065319 37 252 0.0 0.0 0.00 0.00 0.00 84 1018.3
20260502064827 37 252 0.0 0.0 0.00 0.00 0.00 84 1018.3
20260502064557 37 252 0.0 0.0 0.00 0.00 0.00 84 1018.6
20260502064550 37 0 0.0 0.0 0.00 0.00 0.00 84 1016.0
20260502064315 37 252 0.0 0.0 0.00 0.00 0.00 84 1018.4
20260502063824 37 252 0.0 0.0 0.00 0.00 0.00 84 1018.5
20260502063333 38 252 0.0 0.0 0.00 0.00 0.00 84 1018.7
20260502063034 37 252 0.0 0.0 0.00 0.00 0.00 84 1018.9
20260502063032 37 0 0.0 0.0 0.00 0.00 0.00 84 1016.2
20260502062814 38 252 0.0 0.0 0.00 0.00 0.00 84 1018.6
20260502062323 38 252 0.0 0.0 0.00 0.00 0.00 84 1018.8
20260502061833 38 252 0.0 0.0 0.00 0.00 0.00 84 1018.7
20260502061551 37 252 0.0 0.0 0.00 0.00 0.00 84 1019.0
20260502061536 37 0 0.0 0.0 0.00 0.00 0.00 83 1016.4
20260502061321 38 252 0.0 0.0 0.00 0.00 0.00 84 1018.7
20260502060810 38 252 0.0 0.0 0.00 0.00 0.00 84 1018.8
20260502060340 38 252 0.0 0.0 0.00 0.00 0.00 84 1018.8
20260502060044 38 0 0.0 0.0 0.00 0.00 0.00 83 1016.5
20260502060030 38 252 0.0 0.0 0.00 0.00 0.00 84 1019.2
20260502055829 38 252 0.0 0.0 0.00 0.00 0.00 84 1018.9
20260502055311 38 252 0.0 1.0 0.00 0.00 0.00 84 1018.9
20260502054820 39 252 0.0 1.0 0.00 0.00 0.00 84 1019.0
20260502054538 38 252 0.0 1.0 0.00 0.00 0.00 83 1016.6
20260502054516 38 252 0.0 1.0 0.00 0.00 0.00 83 1019.3
20260502054329 39 252 0.0 0.0 0.00 0.00 0.00 83 1019.0
20260502053835 39 252 0.0 0.0 0.00 0.00 0.00 83 1019.0
20260502053316 39 252 0.0 0.0 0.00 0.00 0.00 83 1019.0
20260502053042 39 252 0.0 0.0 0.00 0.00 0.00 83 1019.3
20260502053036 39 0 0.0 0.0 0.00 0.00 0.00 83 1016.7
20260502052823 39 252 0.0 0.0 0.00 0.00 0.00 83 1018.9
20260502052313 39 252 0.0 0.0 0.00 0.00 0.00 83 1018.9
20260502051820 40 252 0.0 0.0 0.00 0.00 0.00 83 1018.9
20260502051535 39 0 0.0 0.0 0.00 0.00 0.00 82 1016.6
20260502051523 39 252 0.0 0.0 0.00 0.00 0.00 83 1019.2
20260502051327 40 252 0.0 0.0 0.00 0.00 0.00 83 1018.9
20260502050809 40 252 0.0 0.0 0.00 0.00 0.00 82 1018.9
20260502050317 40 252 0.0 0.0 0.00 0.00 0.00 82 1018.9
20260502050059 40 252 0.0 0.0 0.00 0.00 0.00 82 1019.3
20260502050035 40 0 0.0 0.0 0.00 0.00 0.00 82 1016.6
20260502045826 40 252 0.0 0.0 0.00 0.00 0.00 82 1019.0
20260502045316 40 252 0.0 1.0 0.00 0.00 0.00 82 1019.0
20260502044817 40 252 0.0 1.0 0.00 0.00 0.00 82 1019.0
20260502044552 40 252 0.0 1.0 0.00 0.00 0.00 82 1019.5
20260502044538 40 252 0.0 1.0 0.00 0.00 0.00 81 1016.8
20260502044326 41 252 0.0 0.0 0.00 0.00 0.00 82 1019.1
20260502043814 41 252 0.0 0.0 0.00 0.00 0.00 82 1019.2
20260502043323 41 252 0.0 0.0 0.00 0.00 0.00 82 1019.2
20260502043056 41 0 0.0 0.0 0.00 0.00 0.00 81 1016.8
20260502043030 41 252 0.0 0.0 0.00 0.00 0.00 81 1019.5
20260502042831 41 252 0.0 0.0 0.00 0.00 0.00 81 1019.2
20260502042315 42 252 0.0 0.0 0.00 0.00 0.00 81 1019.2
20260502041823 42 252 0.0 0.0 0.00 0.00 0.00 81 1019.3
20260502041541 41 0 0.0 0.0 0.00 0.00 0.00 80 1016.8
20260502041507 41 252 0.0 0.0 0.00 0.00 0.00 81 1019.5
20260502041316 42 252 0.0 0.0 0.00 0.00 0.00 81 1019.1
20260502040839 42 252 0.0 0.0 0.00 0.00 0.00 81 1018.9
20260502040325 42 252 0.0 0.0 0.00 0.00 0.00 80 1018.8
20260502040037 42 0 0.0 0.0 0.00 0.00 0.00 80 1016.6
20260502040030 42 252 0.0 0.0 0.00 0.00 0.00 80 1019.1
20260502035812 43 252 0.0 0.0 0.00 0.00 0.00 80 1018.8
20260502035346 43 252 0.0 0.0 0.00 0.00 0.00 80 1018.7
20260502034813 43 252 0.0 0.0 0.00 0.00 0.00 80 1018.8
20260502034553 43 252 0.0 0.0 0.00 0.00 0.00 80 1019.1
20260502034538 43 0 0.0 0.0 0.00 0.00 0.00 79 1016.6
20260502034339 43 252 0.0 0.0 0.00 0.00 0.00 79 1018.7
20260502033811 44 252 0.0 0.0 0.00 0.00 0.00 79 1018.7
20260502033319 44 252 0.0 0.0 0.00 0.00 0.00 79 1018.7
20260502033037 44 0 0.0 0.0 0.00 0.00 0.00 78 1016.6
20260502033017 44 252 0.0 0.0 0.00 0.00 0.00 79 1019.0
20260502032828 44 252 0.0 0.0 0.00 0.00 0.00 79 1018.9
20260502032311 44 252 0.0 0.0 0.00 0.00 0.00 79 1018.8
20260502031821 45 252 0.0 0.0 0.00 0.00 0.00 78 1018.8
20260502031559 44 252 0.0 0.0 0.00 0.00 0.00 78 1019.0
20260502031538 44 0 0.0 0.0 0.00 0.00 0.00 78 1016.6
20260502031312 45 252 0.0 0.0 0.00 0.00 0.00 78 1018.7
20260502030821 45 252 0.0 0.0 0.00 0.00 0.00 78 1018.8
20260502030331 45 252 0.0 0.0 0.00 0.00 0.00 78 1018.8
20260502030045 45 252 0.0 0.0 0.00 0.00 0.00 78 1019.1
20260502025814 45 252 0.0 0.0 0.00 0.00 0.00 78 1018.8
20260502025325 46 252 0.0 1.0 0.00 0.00 0.00 78 1018.9
20260502024814 46 252 0.0 2.0 0.00 0.00 0.00 78 1018.8
20260502024537 46 0 0.0 2.0 0.00 0.00 0.00 77 1016.6
20260502024525 46 252 0.0 2.0 0.00 0.00 0.00 77 1019.1
20260502024324 46 252 1.0 2.0 0.00 0.00 0.00 77 1018.8
20260502023834 46 252 1.0 2.0 0.00 0.00 0.00 76 1018.7
20260502023316 47 301 1.0 2.0 0.00 0.00 0.00 76 1018.6
20260502023035 47 0 0.0 1.0 0.00 0.00 0.00 75 1016.2
20260502023012 47 301 0.0 0.0 0.00 0.00 0.00 75 1018.7
20260502022845 47 301 0.0 0.0 0.00 0.00 0.00 75 1018.3
20260502022313 48 301 0.0 1.0 0.00 0.00 0.00 74 1018.2
20260502021820 48 301 0.0 1.0 0.00 0.00 0.00 74 1018.1
20260502021540 47 301 0.0 1.0 0.00 0.00 0.00 73 1018.4
20260502021534 48 0 0.0 1.0 0.00 0.00 0.00 73 1016.0
20260502021324 48 301 0.0 0.0 0.00 0.00 0.00 73 1018.1
20260502020815 48 301 0.0 1.0 0.00 0.00 0.00 73 1018.1
20260502020325 49 301 0.0 1.0 0.00 0.00 0.00 73 1018.0
20260502020037 48 0 0.0 2.0 0.00 0.00 0.00 72 1015.8
20260502020016 49 301 0.0 0.0 0.00 0.00 0.00 73 1018.3
20260502015815 49 301 0.0 2.0 0.00 0.00 0.00 73 1017.9
20260502015344 49 301 0.0 2.0 0.00 0.00 0.00 72 1017.9
20260502014833 50 340 0.0 2.0 0.00 0.00 0.00 72 1017.8
20260502014550 49 335 0.0 0.0 0.00 0.00 0.00 72 1018.1
20260502014540 49 0 0.0 0.0 0.00 0.00 0.00 71 1015.6
20260502014315 50 336 0.0 0.0 0.00 0.00 0.00 71 1017.8
20260502013823 50 336 0.0 1.0 0.00 0.00 0.00 71 1017.8
20260502013312 50 336 0.0 1.0 0.00 0.00 0.00 71 1017.7
20260502013037 49 0 0.0 2.0 0.00 0.00 0.00 70 1015.6
20260502013001 49 342 0.0 2.0 0.00 0.00 0.00 70 1017.9
20260502012840 50 342 0.0 2.0 0.00 0.00 0.00 70 1017.5
20260502012327 50 336 0.0 2.0 0.00 0.00 0.00 69 1017.4
20260502011815 50 264 0.0 1.0 0.00 0.00 0.00 69 1017.4
20260502011536 50 0 0.0 1.0 0.00 0.00 0.00 68 1015.1
20260502011518 50 264 0.0 1.0 0.00 0.00 0.00 68 1017.5
20260502011324 50 264 0.0 1.0 0.00 0.00 0.00 68 1017.3
20260502010835 51 264 0.0 2.0 0.00 0.00 0.00 68 1017.1
20260502010317 51 263 1.0 2.0 0.00 0.00 0.00 68 1016.9
20260502010037 51 0 0.0 3.0 0.00 0.00 0.00 68 1014.7
20260502010010 51 270 0.0 2.0 0.00 0.00 0.00 69 1017.0
20260502005826 51 271 1.0 3.0 0.00 0.00 0.00 69 1016.7
20260502005316 51 5 0.0 3.0 0.00 0.00 0.00 69 1016.7
20260502004845 51 256 0.0 4.0 0.00 0.00 0.00 69 1016.7
20260502004543 51 261 0.0 4.0 0.00 0.00 0.00 69 1014.6
20260502004518 51 261 0.0 4.0 0.00 0.00 0.00 69 1016.9
20260502004335 51 242 1.0 4.0 0.00 0.00 0.00 69 1016.5
20260502003825 51 58 1.0 5.0 0.00 0.00 0.00 70 1016.4
20260502003334 51 242 1.0 7.0 0.00 0.00 0.00 71 1016.5
20260502003037 51 52 1.0 7.0 0.00 0.00 0.00 72 1014.5
20260502003010 51 355 1.0 7.0 0.00 0.00 0.00 72 1016.7
20260502002823 51 261 3.0 7.0 0.00 0.00 0.00 74 1016.4
20260502002335 52 50 1.0 4.0 0.00 0.00 0.00 76 1016.4
20260502001819 52 255 0.0 2.0 0.00 0.00 0.00 78 1016.2
20260502001548 52 258 1.0 2.0 0.00 0.00 0.00 78 1016.3
20260502001538 52 0 0.0 3.0 0.00 0.00 0.00 77 1014.0
20260502001326 52 15 0.0 2.0 0.00 0.00 0.00 78 1015.9
20260502000815 52 296 0.0 3.0 0.00 0.00 0.00 77 1015.6
20260502000347 53 217 1.0 2.0 0.00 0.00 0.00 78 1015.6
20260502000037 52 0 0.0 0.0 0.00 0.00 0.00 77 1013.5
20260502000035 52 301 0.0 0.0 0.00 0.00 0.00 78 1015.8
20260501235813 53 301 0.0 0.0 0.00 0.00 0.00 78 1015.4
20260501235343 53 294 0.0 0.0 0.00 0.00 0.00 77 1015.2
20260501234830 53 294 0.0 0.0 0.00 0.00 0.00 77 1015.2
20260501234541 52 294 0.0 0.0 0.00 0.00 0.00 77 1015.3
20260501234539 52 0 0.0 0.0 0.00 0.00 0.00 76 1013.1
20260501234313 53 294 0.0 0.0 0.00 0.00 0.00 77 1015.1
20260501233844 53 294 0.0 0.0 0.00 0.00 0.00 77 1014.9
20260501233312 53 294 0.0 0.0 0.00 0.00 0.00 76 1014.9
20260501233039 52 0 0.0 0.0 0.00 0.00 0.00 76 1012.9
20260501233008 52 294 0.0 0.0 0.00 0.00 0.00 76 1015.1
20260501232820 53 294 0.0 0.0 0.00 0.00 0.00 76 1014.8
20260501232332 53 294 0.0 0.0 0.00 0.00 0.00 76 1014.8
20260501231811 53 294 0.0 1.0 0.00 0.00 0.00 76 1014.8
20260501231550 53 294 0.0 1.0 0.00 0.00 0.00 76 1015.0
20260501231540 53 0 0.0 1.0 0.00 0.00 0.00 76 1012.8
20260501231322 53 294 0.0 1.0 0.00 0.00 0.00 76 1014.9
20260501230811 53 294 0.0 0.0 0.00 0.00 0.00 76 1014.9
20260501230342 53 294 0.0 0.0 0.00 0.00 0.00 76 1014.8
20260501230039 53 0 0.0 0.0 0.00 0.00 0.00 75 1012.9
20260501230004 53 294 0.0 0.0 0.00 0.00 0.00 76 1015.1
20260501225828 53 294 0.0 0.0 0.00 0.00 0.00 75 1014.9
20260501225319 53 294 0.0 0.0 0.00 0.00 0.00 75 1014.9
20260501224820 53 294 0.0 0.0 0.00 0.00 0.00 75 1014.9
20260501224551 53 294 0.0 0.0 0.00 0.00 0.00 75 1015.2
20260501224540 53 0 0.0 0.0 0.00 0.00 0.00 75 1013.0
20260501224356 53 294 0.0 0.0 0.00 0.00 0.00 75 1014.9
20260501223816 53 294 0.0 0.0 0.00 0.00 0.00 74 1014.9
20260501223324 53 294 0.0 2.0 0.00 0.00 0.00 74 1014.9
20260501223034 53 0 0.0 2.0 0.00 0.00 0.00 73 1012.8
20260501223007 53 294 0.0 2.0 0.00 0.00 0.00 74 1015.2
20260501222819 54 294 0.0 2.0 0.00 0.00 0.00 74 1014.9
20260501222329 54 355 0.0 3.0 0.00 0.00 0.00 73 1014.9
20260501221809 54 355 1.0 3.0 0.00 0.00 0.00 73 1014.8
20260501221600 54 57 0.0 3.0 0.00 0.00 0.00 73 1015.1
20260501221537 54 309 0.0 3.0 0.00 0.00 0.00 72 1012.7
20260501221339 55 248 1.0 3.0 0.00 0.00 0.00 72 1014.9
20260501220851 55 28 1.0 2.0 0.00 0.00 0.00 71 1014.9
20260501220316 55 232 0.0 3.0 0.00 0.00 0.00 71 1015.0
20260501220059 55 232 1.0 3.0 0.00 0.00 0.00 71 1015.3
20260501220040 55 223 1.0 3.0 0.00 0.00 0.00 70 1013.1
20260501215826 56 261 1.0 2.0 0.00 0.00 0.00 70 1014.9
20260501215316 56 290 0.0 1.0 0.00 0.00 0.00 69 1014.8
20260501214845 56 290 0.0 1.0 0.00 0.00 0.00 68 1014.9
20260501214539 56 0 0.0 3.0 0.00 0.00 0.00 66 1012.7
20260501214533 56 286 0.0 2.0 0.00 0.00 0.00 66 1015.0
20260501214334 56 286 0.0 3.0 0.00 0.00 0.00 66 1014.7
20260501213814 57 271 1.0 4.0 0.00 0.00 0.00 65 1014.6
20260501213324 57 32 1.0 4.0 0.00 0.00 0.00 64 1014.6
20260501213106 57 134 0.0 4.0 0.00 0.00 0.00 64 1014.9
20260501213037 57 0 0.0 7.0 0.00 0.00 0.00 64 1012.5
20260501212813 57 284 1.0 7.0 0.00 0.00 0.00 63 1014.5
20260501212322 57 13 2.0 7.0 0.00 0.00 0.00 63 1014.5
20260501211832 58 323 1.0 4.0 0.00 0.00 0.00 65 1014.5
20260501211549 57 330 1.0 4.0 0.00 0.00 0.00 64 1014.6
20260501211536 57 22 1.0 4.0 0.00 0.00 0.00 64 1012.4
20260501211313 58 24 1.0 4.0 0.00 0.00 0.00 66 1014.3
20260501210822 58 30 1.0 12.0 0.00 0.00 0.00 64 1014.4
20260501210331 58 175 2.0 12.0 0.00 0.00 0.00 64 1014.4
20260501210038 58 38 0.0 3.0 0.00 0.00 0.00 66 1012.4
20260501210035 58 93 1.0 4.0 0.00 0.00 0.00 66 1014.6
20260501205840 59 121 1.0 3.0 0.00 0.00 0.00 67 1014.3
20260501205349 59 33 1.0 4.0 0.00 0.00 0.00 67 1014.4
20260501204809 59 293 2.0 6.0 0.00 0.00 0.00 66 1014.3
20260501204547 59 15 1.0 6.0 0.00 0.00 0.00 66 1012.1
20260501204542 59 328 1.0 6.0 0.00 0.00 0.00 66 1014.6
20260501204320 59 38 2.0 6.0 0.00 0.00 0.00 66 1014.3
20260501203811 60 38 1.0 4.0 0.00 0.00 0.00 66 1014.2
20260501203322 60 38 1.0 3.0 0.00 0.00 0.00 66 1014.2
20260501203044 59 78 1.0 6.0 0.00 0.00 0.00 66 1014.4
20260501203037 59 19 0.0 6.0 0.00 0.00 0.00 65 1012.0
20260501202824 60 148 1.0 6.0 0.00 0.00 0.00 66 1014.1
20260501202313 60 46 2.0 6.0 0.00 0.00 0.00 67 1014.0
20260501201843 60 28 1.0 5.0 0.00 0.00 0.00 67 1013.9
20260501201612 59 147 1.0 5.0 0.00 0.00 0.00 68 1014.2
20260501201535 59 106 1.0 6.0 0.00 0.00 0.00 66 1011.9
20260501201311 60 11 2.0 5.0 0.00 0.00 0.00 66 1013.9
20260501200821 60 247 0.0 7.0 0.00 0.00 0.00 67 1013.9
20260501200323 60 252 0.0 7.0 0.00 0.00 0.00 66 1013.9
20260501200050 60 252 2.0 7.0 0.00 0.00 0.00 65 1014.2
20260501200036 60 248 1.0 7.0 0.00 0.00 0.00 65 1012.0
20260501195834 60 16 0.0 3.0 0.00 0.00 0.00 66 1013.9
20260501195321 61 20 1.0 4.0 0.00 0.00 0.00 65 1013.8
20260501194809 61 360 1.0 6.0 0.00 0.00 0.00 63 1013.7
20260501194542 61 349 2.0 9.0 0.00 0.00 0.00 61 1011.7
20260501194523 61 348 2.0 9.0 0.00 0.00 0.00 61 1014.0
20260501194318 61 16 2.0 9.0 0.00 0.00 0.00 60 1013.8
20260501193822 62 64 3.0 9.0 0.00 0.00 0.00 55 1013.8
20260501193310 63 254 2.0 9.0 0.00 0.00 0.00 52 1013.6
20260501193037 62 344 2.0 9.0 0.00 0.00 0.00 50 1011.6
20260501193010 63 340 3.0 9.0 0.00 0.00 0.00 50 1013.8
20260501192819 63 319 2.0 5.0 0.00 0.00 0.00 50 1013.5
20260501192330 64 38 1.0 3.0 0.00 0.00 0.00 48 1013.4
20260501191810 64 57 1.0 5.0 0.00 0.00 0.00 46 1013.3
20260501191545 64 78 0.0 5.0 0.00 0.00 0.00 44 1013.6
20260501191542 64 0 1.0 10.0 0.00 0.00 0.00 44 1011.2
20260501191321 65 343 2.0 5.0 0.00 0.00 0.00 44 1013.1
20260501190810 65 213 3.0 10.0 0.00 0.00 0.00 42 1013.3
20260501190321 66 28 1.0 9.0 0.00 0.00 0.00 43 1013.1
20260501190044 65 270 2.0 9.0 0.00 0.00 0.00 44 1011.0
20260501190027 65 270 2.0 9.0 0.00 0.00 0.00 44 1013.3
20260501185832 66 247 3.0 9.0 0.00 0.00 0.00 40 1013.0
20260501185316 66 164 2.0 9.0 0.00 0.00 0.00 43 1013.0
20260501184825 66 269 4.0 9.0 0.00 0.00 0.00 41 1012.9
20260501184545 66 277 1.0 8.0 0.00 0.00 0.00 40 1010.9
20260501184506 66 17 1.0 8.0 0.00 0.00 0.00 40 1013.2
20260501184313 67 213 2.0 8.0 0.00 0.00 0.00 39 1013.0
20260501183824 67 61 3.0 8.0 0.00 0.00 0.00 39 1013.0
20260501183325 67 225 3.0 7.0 0.00 0.00 0.00 40 1012.9
20260501183056 67 165 1.0 7.0 0.00 0.00 0.00 45 1013.4
20260501183042 67 0 2.0 11.0 0.00 0.00 0.00 40 1010.9
20260501182815 67 184 3.0 11.0 0.00 0.00 0.00 45 1012.9
20260501182309 67 123 5.0 11.0 0.00 0.00 0.00 39 1013.0
20260501181809 67 93 3.0 8.0 0.00 0.00 0.00 39 1013.1
20260501181545 66 232 3.0 9.0 0.00 0.00 0.00 39 1011.0
20260501181540 67 189 2.0 9.0 0.00 0.00 0.00 40 1013.4
20260501181317 67 238 3.0 9.0 0.00 0.00 0.00 41 1013.1
20260501180848 67 171 4.0 9.0 0.00 0.00 0.00 40 1013.2
20260501180312 66 194 3.0 10.0 0.00 0.00 0.00 44 1013.3
20260501180055 65 161 2.0 10.0 0.00 0.00 0.00 48 1013.7
20260501180043 65 183 4.0 11.0 0.00 0.00 0.00 45 1011.2
20260501175822 65 215 4.0 10.0 0.00 0.00 0.00 41 1013.3
20260501175331 65 331 2.0 7.0 0.00 0.00 0.00 43 1013.4
20260501174813 65 209 2.0 6.0 0.00 0.00 0.00 41 1013.4
20260501174547 65 149 2.0 7.0 0.00 0.00 0.00 42 1013.7
20260501174541 65 94 2.0 7.0 0.00 0.00 0.00 44 1011.4
20260501174320 65 211 3.0 7.0 0.00 0.00 0.00 43 1013.5
20260501173830 65 277 2.0 6.0 0.00 0.00 0.00 41 1013.4
20260501173319 65 136 3.0 9.0 0.00 0.00 0.00 41 1013.4
20260501173044 64 207 2.0 9.0 0.00 0.00 0.00 42 1011.4
20260501173002 64 225 2.0 9.0 0.00 0.00 0.00 43 1013.7
20260501172809 64 315 3.0 8.0 0.00 0.00 0.00 43 1013.4
20260501172337 64 211 2.0 9.0 0.00 0.00 0.00 41 1013.4
20260501171825 64 165 2.0 8.0 0.00 0.00 0.00 42 1013.6
20260501171549 64 196 2.0 8.0 0.00 0.00 0.00 39 1011.6
20260501171533 64 194 2.0 8.0 0.00 0.00 0.00 40 1014.0
20260501171309 64 330 1.0 8.0 0.00 0.00 0.00 43 1013.7